Arcata, CA

9:13 AM PDT on October 20, 2017 (GMT -0700)
Arcata

Weather History for KACV - October, 2012

Change the Weather History Date:

Tuesday, October 16, 2012

  Actual Average Record
Temperature  
Mean Temperature 55 °F -  
Max Temperature 64 °F 60 °F 85 °F (1999)
Min Temperature 46 °F 42 °F 37 °F (1996)
Degree Days  
Heating Degree Days 10    
Growing Degree Days 5 (Base 50)    
Moisture  
Dew Point 56 °F    
Average Humidity 94    
Maximum Humidity 100    
Minimum Humidity 63    
Precipitation  
Precipitation 0.59 in - - ()
Sea Level Pressure  
Sea Level Pressure 30.07 in    
Wind  
Wind Speed 9 mph (WNW)    
Max Wind Speed 16 mph    
Max Gust Speed 26 mph    
Visibility 5 miles    
Events Fog , Rain    
Averages and records for this station are not official NWS values.
T = Trace of Precipitation, MM = Missing Value Source: NWS Daily Summary

Daily Weather History Graph

Daily Weather History Graph

Search for Another Location

Airport or City:

Trip Planner

Search our weather history database for the weather conditions in past years. The results will help you decide how hot, cold, wet, or windy it might be!

Date:

Astronomy

Oct. 16, 2012 Rise Set
Actual Time 7:29 AM PDT 6:33 PM PDT
Civil Twilight 7:01 AM PDT 7:01 PM PDT
Nautical Twilight 6:29 AM PDT 7:33 PM PDT
Astronomical Twilight 5:58 AM PDT 8:04 PM PDT
Moon 9:00 AM PDT (10/16) 7:21 PM PDT (10/16)
Length of Visible Light 11h 59m
Length of Day
11h 03m
New Moon, 2% of the Moon is Illuminated
Oct 16
New Moon
Oct 21
First Quarter
Oct 29
Full
Nov 6
Last Quarter
Nov 13
New

Hourly Weather History & Observations

Time (PDT) Temp. Dew Point Humidity Pressure Visibility Wind Dir Wind Speed Gust Speed Precip Events Conditions
12:29 AM 62.6 °F 62.6 °F 100% 30.02 in 1.8 mi SSW 11.5 mph - 0.03 in Rain Light Rain
12:53 AM 63.0 °F 63.0 °F 100% 30.03 in 1.8 mi SSW 12.7 mph - 0.10 in Rain Rain
1:06 AM 62.6 °F 62.6 °F 100% 30.02 in 2.5 mi SSW 12.7 mph - 0.03 in Rain Light Rain
1:53 AM 63.0 °F 63.0 °F 100% 30.02 in 2.5 mi SSW 10.4 mph 19.6 mph 0.06 in Rain Light Rain
2:11 AM 62.6 °F 62.6 °F 100% 30.01 in 1.8 mi SSW 11.5 mph - 0.00 in Rain Light Rain
2:49 AM 62.6 °F 62.6 °F 100% 30.01 in 3.0 mi SSW 13.8 mph - 0.08 in Rain Light Rain
2:53 AM 62.1 °F 62.1 °F 100% 30.02 in 3.0 mi SSW 9.2 mph 19.6 mph 0.08 in Rain Light Rain
3:43 AM 60.8 °F 60.8 °F 100% 30.01 in 1.5 mi SSW 11.5 mph - 0.07 in Rain Rain
3:53 AM 61.0 °F 61.0 °F 100% 30.03 in 1.8 mi SSW 11.5 mph 17.3 mph 0.12 in Rain Rain
4:01 AM 60.8 °F 60.8 °F 100% 30.01 in 2.0 mi SSW 10.4 mph - 0.02 in Rain Light Rain
4:13 AM 60.8 °F 60.8 °F 100% 30.01 in 1.8 mi SSW 9.2 mph - 0.06 in Rain Rain
4:24 AM 60.8 °F 60.8 °F 100% 30.01 in 2.5 mi SSW 6.9 mph - 0.09 in Rain Rain
5:16 AM 60.8 °F 60.8 °F 100% 30.02 in 2.5 mi SSW 4.6 mph - 0.07 in Rain Light Rain
5:53 AM 59.0 °F 59.0 °F 100% 30.05 in 2.5 mi WSW 5.8 mph - 0.13 in Rain Light Rain
6:04 AM 57.2 °F 57.2 °F 100% 30.04 in 1.5 mi SW 4.6 mph - 0.02 in Rain Light Rain
6:21 AM 57.2 °F 57.2 °F 100% 30.04 in 2.0 mi Calm Calm - 0.08 in Rain Light Rain
6:29 AM 57.2 °F 57.2 °F 100% 30.04 in 3.0 mi Variable 4.6 mph - 0.08 in Rain Light Rain
6:36 AM 57.2 °F 57.2 °F 100% 30.04 in 1.8 mi NNW 5.8 mph - 0.09 in Rain Light Rain
6:42 AM 57.2 °F 57.2 °F 100% 30.04 in 0.8 mi North 6.9 mph - 0.09 in Rain Light Rain
6:53 AM 57.0 °F 57.0 °F 100% 30.05 in 2.5 mi ENE 3.5 mph - 0.09 in Rain Light Rain
6:58 AM 57.2 °F 57.2 °F 100% 30.03 in 4.0 mi Calm Calm - 0.00 in Rain Light Rain
7:05 AM 57.2 °F 57.2 °F 100% 30.04 in 8.0 mi WSW 3.5 mph - 0.00 in   Overcast
7:12 AM 57.2 °F 57.2 °F 100% 30.04 in 10.0 mi South 3.5 mph - 0.00 in   Overcast
7:25 AM 57.2 °F 57.2 °F 100% 30.05 in 1.5 mi West 8.1 mph - 0.00 in   Overcast
7:34 AM 55.4 °F 55.4 °F 100% 30.05 in 0.5 mi NNW 11.5 mph - 0.00 in Fog Fog
7:36 AM 55.4 °F 55.4 °F 100% 30.05 in 0.2 mi NNW 11.5 mph - 0.00 in Fog Fog
7:43 AM 55.4 °F 55.4 °F 100% 30.05 in 0.5 mi NNW 11.5 mph - 0.00 in Fog Fog
7:47 AM 55.4 °F 55.4 °F 100% 30.06 in 1.0 mi North 13.8 mph - 0.00 in   Overcast
7:50 AM 55.4 °F 55.4 °F 100% 30.06 in 4.0 mi North 12.7 mph - 0.00 in   Overcast
7:53 AM 57.0 °F 57.0 °F 100% 30.07 in 6.0 mi North 12.7 mph - 0.00 in   Overcast
8:12 AM 57.2 °F 57.2 °F 100% 30.07 in 4.0 mi North 8.1 mph - N/A   Overcast
8:22 AM 57.2 °F 57.2 °F 100% 30.07 in 9.0 mi NNE 6.9 mph - N/A   Overcast
8:53 AM 57.9 °F 55.9 °F 93% 30.09 in 6.0 mi North 8.1 mph - N/A   Overcast
9:53 AM 57.9 °F 55.9 °F 93% 30.13 in 6.0 mi North 9.2 mph - N/A   Overcast
10:53 AM 60.1 °F 55.9 °F 86% 30.14 in 8.0 mi NNW 15.0 mph - N/A   Clear
11:53 AM 62.1 °F 55.0 °F 78% 30.14 in 10.0 mi North 15.0 mph - N/A   Clear
12:53 PM 61.0 °F 55.0 °F 81% 30.16 in 10.0 mi NNW 13.8 mph - N/A   Clear
1:53 PM 61.0 °F 54.0 °F 78% 30.14 in 8.0 mi NNW 16.1 mph - N/A   Clear
2:53 PM 64.0 °F 51.1 °F 63% 30.13 in 10.0 mi North 13.8 mph 25.3 mph N/A   Clear
3:53 PM 63.0 °F 52.0 °F 67% 30.14 in 10.0 mi North 16.1 mph 23.0 mph N/A   Clear
4:53 PM 62.1 °F 50.0 °F 65% 30.13 in 10.0 mi North 13.8 mph 26.5 mph N/A   Clear
5:53 PM 59.0 °F 46.9 °F 64% 30.13 in 10.0 mi North 11.5 mph - N/A   Clear
6:53 PM 55.9 °F 48.0 °F 75% 30.12 in 10.0 mi North 12.7 mph - N/A   Clear
7:53 PM 54.0 °F 48.0 °F 80% 30.13 in 10.0 mi Calm Calm - N/A   Clear
8:53 PM 50.0 °F 48.0 °F 93% 30.14 in 8.0 mi Calm Calm - N/A   Clear
9:53 PM 48.0 °F 46.9 °F 96% 30.14 in 9.0 mi Calm Calm - N/A   Clear
10:53 PM 46.9 °F 46.9 °F 100% 30.14 in 10.0 mi Calm Calm - 0.01 in   Clear
11:53 PM 46.0 °F 46.0 °F 100% 30.14 in 10.0 mi Calm Calm - N/A   Clear